GEFSMA_con_maxscp_198.txt.gz
SCP
2 2 1 1 1 1 1 2 1 1 0 0 0 0 0 1 1 2 4 5 4 3 2 2 2 2 1 1 1 1 2 2 2 1 1 1 1 1 1 1 0 0 0
2 2 1 1 1 2 2 1 1 1 0 0 0 0 0 1 1 2 3 4 5 4 3 2 2 1 1 1 1 2 3 3 3 2 2 1 1 1 1 1 1 1 1
2 2 1 1 1 1 1 1 1 1 0 0 0 0 1 1 1 2 3 4 4 4 4 3 2 1 1 1 2 3 3 4 4 3 3 2 2 2 2 1 1 1 1
2 2 1 1 1 1 1 1 0 0 0 0 0 1 1 1 1 1 2 3 3 4 5 5 4 4 3 3 3 3 4 4 4 4 4 4 4 3 3 3 2 2 2
2 1 1 1 1 1 0 0 0 0 0 0 0 0 1 1 1 1 2 2 2 3 4 6 8 8 7 6 6 6 6 7 7 8 8 8 7 7 6 5 5 4 4
2 1 1 1 0 0 0 0 0 0 0 1 1 0 0 0 1 1 1 1 1 1 3 5 7 7 7 8 9 9 10 11 12 13 13 13 13 13 12 11 9 8 7
2 2 1 1 0 0 0 0 0 1 1 1 1 1 0 0 0 1 1 1 1 1 1 2 3 3 4 5 7 8 9 10 11 12 12 12 13 14 15 15 13 11 11
3 3 1 1 1 1 0 0 0 1 1 1 1 1 0 0 0 0 0 0 0 0 0 1 1 1 1 2 3 4 4 5 5 5 5 6 7 9 12 13 12 12 12
4 3 2 1 1 1 1 1 1 1 1 1 1 1 0 0 0 0 0 0 0 0 0 0 0 0 0 0 1 1 1 1 1 2 2 2 3 4 6 7 8 8 8
3 2 2 1 1 1 1 1 1 1 1 1 1 1 1 0 0 0 0 0 0 0 0 0 0 0 0 0 0 0 1 1 1 1 1 1 2 2 2 3 3 3 3
2 2 2 2 2 2 2 3 3 2 2 2 2 2 1 1 0 0 0 0 0 0 0 0 0 0 0 1 1 1 1 1 1 1 1 1 1 1 1 1 1 1 0
4 4 5 6 7 6 5 4 4 4 5 5 4 3 2 2 1 1 0 0 0 0 0 0 0 0 0 1 1 1 1 0 0 0 1 1 1 1 1 1 1 1 1
9 9 9 12 14 13 10 7 6 6 6 6 5 4 3 2 1 1 1 0 0 0 0 0 0 0 1 1 1 1 1 0 0 0 0 0 1 1 1 1 1 1 1
11 11 11 14 16 15 12 9 8 6 4 3 3 2 2 1 1 1 1 1 1 1 1 1 0 0 0 1 1 1 0 0 0 0 0 0 0 0 1 1 1 1 1
11 11 11 12 12 10 8 7 5 4 2 1 1 1 1 1 1 1 1 1 1 1 1 1 1 0 0 0 1 0 0 0 0 0 0 0 0 0 0 1 1 1 1
9 9 9 9 7 5 4 4 3 2 1 1 1 1 1 1 1 1 1 1 2 1 1 1 1 0 0 0 0 0 0 0 0 0 0 0 0 0 0 0 0 0 0
7 6 5 4 3 3 3 3 2 2 1 1 1 1 1 1 1 1 1 1 1 1 1 1 0 0 0 0 0 0 0 0 0 0 0 0 0 0 0 0 0 0 0
5 4 4 3 3 3 3 2 2 2 1 1 1 1 1 1 1 1 1 1 1 1 1 0 0 0 0 0 0 0 0 0 0 0 0 0 0 0 0 0 0 0 0
5 4 4 4 4 4 3 2 2 2 2 2 1 2 2 2 2 2 2 1 1 1 0 0 0 0 0 0 0 0 0 0 0 0 0 0 0 0 0 0 0 0 0
5 5 5 4 4 4 3 2 2 2 2 2 2 2 2 2 1 1 1 1 1 1 0 0 0 0 0 0 0 0 0 0 0 0 0 0 0 0 0 0 0 0 0
5 5 4 4 3 3 2 2 2 2 2 2 2 2 1 1 1 0 0 0 0 0 0 0 0 0 0 0 0 0 0 0 0 0 0 0 0 0 0 0 0 0 0
6 5 4 4 3 2 2 1 1 1 1 1 1 1 1 0 0 0 0 0 0 0 0 0 0 0 0 0 0 0 0 0 0 0 0 0 0 0 0 0 0 0 0
5 5 5 4 3 2 2 1 1 0 0 0 1 0 0 0 0 0 0 0 0 0 0 0 0 0 0 0 0 0 0 0 0 0 0 0 0 0 0 0 0 0 0
6 5 5 5 4 3 2 1 1 0 0 0 0 0 0 0 0 0 0 0 0 0 0 0 0 0 0 0 0 0 0 0 0 0 0 0 0 0 0 0 0 0 0
6 7 6 5 4 3 2 1 1 0 0 0 0 0 0 0 0 0 0 0 0 0 0 0 0 0 0 0 0 0 0 0 0 0 0 0 0 0 0 0 0 0 0
7 7 7 6 4 3 2 1 0 0 0 0 0 0 0 0 0 0 0 0 0 0 0 0 0 0 0 0 0 0 0 0 0 0 0 0 0 0 0 0 0 0 0

GEFSMA_con_maxscp_204.txt.gz
SCP
0 0 0 0 0 0 0 0 0 0 0 0 0 0 0 0 0 0 0 0 0 0 0 1 1 1 1 1 1 1 1 0 0 0 0 0 0 0 0 0 0 0 0
0 0 0 0 0 0 0 0 0 0 0 0 0 0 0 0 0 0 0 0 0 0 0 1 1 1 1 1 1 1 1 1 0 0 0 0 0 0 0 0 0 0 0
0 0 0 0 0 0 0 0 0 0 0 0 0 0 0 0 0 0 0 0 0 0 0 1 1 1 1 1 1 1 1 1 1 1 0 0 0 0 0 0 0 0 0
0 0 0 0 0 0 0 0 0 0 0 0 0 0 0 0 0 0 0 0 0 0 0 1 1 1 1 1 1 1 1 1 1 1 1 1 1 1 0 0 0 1 1
0 0 0 0 0 0 0 0 0 0 0 0 0 0 0 0 0 0 0 0 0 0 0 1 1 1 1 1 1 1 1 1 1 1 1 1 1 1 1 0 0 0 0
0 0 0 0 0 0 0 0 0 0 0 0 0 0 0 0 0 0 0 0 0 0 0 1 1 1 1 1 1 1 1 1 1 1 1 1 1 1 1 1 0 0 0
0 0 0 0 0 0 0 0 0 0 0 0 0 0 0 0 0 0 0 0 0 0 0 0 1 1 1 1 1 1 1 1 1 1 1 1 1 1 1 1 1 0 0
0 0 0 0 0 1 1 1 1 1 1 1 0 0 0 0 0 0 0 0 0 0 0 0 1 1 1 1 1 1 1 1 1 1 1 1 1 1 1 1 1 1 0
1 1 1 1 1 1 1 1 1 1 1 1 1 0 0 0 0 0 0 0 0 0 0 0 1 1 1 1 0 0 1 1 1 1 1 1 1 1 1 1 1 1 1
1 1 1 1 1 1 1 1 1 1 1 1 1 0 0 0 0 0 0 0 0 0 0 0 0 0 0 0 0 0 0 1 1 1 1 1 1 1 1 1 1 1 1
1 1 1 1 1 1 1 1 1 1 1 1 1 0 0 0 0 0 0 0 0 0 0 0 0 0 0 0 0 0 0 1 1 1 1 1 1 1 1 1 1 1 1
0 1 1 1 1 1 2 2 2 2 2 1 1 1 0 0 0 0 0 0 0 0 0 0 0 0 0 0 0 0 0 0 0 1 1 1 1 1 1 1 1 1 1
1 1 1 1 1 2 2 2 2 2 2 2 1 1 1 0 0 0 0 0 0 0 0 0 0 0 0 0 0 0 0 0 0 0 0 1 1 1 1 1 1 1 1
1 1 1 1 1 2 2 2 2 2 2 2 2 1 1 1 1 1 0 0 1 1 1 1 0 0 0 0 0 0 0 0 0 0 0 0 0 1 1 1 1 1 1
2 2 2 2 2 2 2 2 2 2 2 2 2 1 1 1 1 1 1 1 1 1 1 1 1 0 0 0 0 0 0 0 0 0 0 0 0 0 0 0 1 1 1
3 3 3 3 2 2 2 2 2 3 3 3 2 1 1 1 1 1 1 1 1 2 2 1 1 1 0 0 0 0 0 0 0 0 0 0 0 0 0 0 0 0 0
4 4 4 4 4 3 3 3 3 3 3 3 2 2 1 1 1 1 1 1 1 2 2 2 1 1 0 0 0 0 0 0 0 0 0 0 0 0 0 0 0 0 0
5 5 6 6 5 5 5 5 5 5 4 4 3 2 2 2 2 2 2 2 2 2 2 2 1 1 1 0 0 0 0 0 0 0 0 0 0 0 0 0 0 0 0
4 5 6 7 8 7 7 7 6 6 5 4 3 3 3 3 3 2 2 2 1 1 1 1 1 1 1 0 0 0 0 0 0 0 0 0 0 0 0 0 0 0 0
3 4 6 8 9 10 9 8 7 6 5 4 4 4 4 3 2 2 1 1 1 1 1 1 1 1 1 0 0 0 0 0 0 0 0 0 0 0 0 0 0 0 0
4 4 6 8 9 9 8 7 7 6 6 5 4 3 3 2 1 1 1 0 0 0 0 0 0 0 0 0 0 0 0 0 0 0 0 0 0 0 0 0 0 0 0
4 5 6 6 7 6 5 5 5 5 5 3 3 2 1 1 1 0 0 0 0 0 0 0 0 0 0 0 0 0 0 0 0 0 0 0 0 0 0 0 0 0 0
5 5 4 4 4 4 3 3 3 3 3 2 1 1 1 0 0 0 0 0 0 0 0 0 0 0 0 0 0 0 0 0 0 0 0 0 0 0 0 0 0 0 0
7 5 4 3 3 3 3 2 2 2 1 1 1 0 0 0 0 0 0 0 0 0 0 0 0 0 0 0 0 0 0 0 0 0 0 0 0 0 0 0 0 0 0
9 6 4 3 4 4 4 2 1 1 1 1 0 0 0 0 0 0 0 0 0 0 0 0 0 0 0 0 0 0 0 0 0 0 0 0 0 0 0 0 0 0 0
10 7 4 3 4 4 4 2 1 1 1 1 0 0 0 0 0 0 0 0 0 0 0 0 0 0 0 0 0 0 0 0 0 0 0 0 0 0 0 0 0 0 0

GEFSMA_con_maxscp_210.txt.gz
SCP
0 0 0 0 0 0 1 1 1 0 0 0 0 0 1 1 1 1 1 1 1 1 1 1 1 1 1 1 1 1 0 0 0 0 0 0 0 0 0 0 0 0 0
0 0 0 0 0 0 1 1 1 0 1 0 0 1 1 1 1 1 1 1 1 1 1 1 1 1 1 1 1 1 1 0 0 0 0 0 0 0 0 0 0 0 0
0 1 0 0 0 0 1 1 1 1 1 1 0 1 1 1 1 1 1 1 1 1 1 1 1 1 1 1 1 1 1 1 1 1 1 1 0 0 0 0 0 0 0
1 1 1 0 0 1 1 1 1 1 1 1 1 1 1 1 1 1 1 1 1 1 1 1 1 1 1 1 1 1 1 1 1 1 1 1 1 1 0 0 0 0 0
1 1 1 1 1 1 1 1 1 1 1 1 1 1 1 1 1 1 1 1 1 1 1 1 1 1 1 1 1 1 1 1 1 1 1 1 1 1 0 0 0 0 0
1 1 1 1 1 1 1 1 1 1 1 1 1 1 1 1 1 1 1 1 1 1 1 1 1 1 1 1 1 1 1 1 1 1 1 1 1 1 0 0 0 0 0
1 1 1 1 1 1 1 1 1 1 1 1 1 1 1 1 0 1 1 1 1 1 1 1 1 1 1 1 1 1 1 1 1 1 1 1 1 1 0 0 0 0 0
1 1 1 1 1 2 2 2 2 2 2 2 1 1 1 1 1 0 0 1 1 1 1 1 1 1 1 1 1 1 1 1 1 1 1 1 1 1 1 0 0 0 0
1 1 1 2 2 2 2 2 2 2 2 2 2 1 1 1 1 1 0 0 1 1 1 1 1 1 1 1 1 1 1 1 1 1 1 1 1 1 1 1 1 1 1
2 2 2 2 2 2 2 2 2 3 3 3 2 2 2 1 1 1 0 0 0 1 1 1 1 1 1 1 1 1 1 1 1 1 1 1 1 1 1 1 1 1 1
2 2 2 2 2 2 2 2 2 3 3 3 2 2 2 2 2 1 1 1 1 1 1 1 1 1 1 1 2 2 1 1 1 1 1 1 1 1 1 1 1 1 1
1 2 2 2 2 3 3 3 3 3 3 3 3 3 2 2 2 2 1 1 1 1 1 1 1 1 1 1 1 2 1 1 0 0 0 0 1 1 1 1 1 1 1
1 1 2 2 3 3 4 4 4 4 4 4 4 3 3 3 3 2 2 2 1 1 1 1 1 1 1 1 1 1 1 1 0 0 0 0 0 0 1 1 1 1 1
1 2 2 2 3 4 4 5 5 5 5 5 4 4 4 4 4 3 3 3 2 1 1 1 1 1 2 1 1 1 1 1 0 0 0 0 0 0 0 1 1 1 1
2 2 2 2 3 4 5 6 7 7 7 7 6 6 6 6 5 5 4 4 3 2 2 1 1 1 1 1 1 1 1 1 0 0 0 0 0 0 0 0 0 0 0
3 3 2 3 3 4 5 7 8 9 9 9 9 9 9 9 9 8 6 5 5 4 3 2 2 2 2 1 1 1 1 1 1 0 0 0 0 0 0 0 0 0 0
3 3 3 3 3 4 5 6 8 9 11 12 12 12 12 12 12 11 9 7 6 6 6 4 3 3 2 2 2 1 1 2 1 0 0 0 0 0 0 0 0 0 0
3 4 4 4 4 4 5 6 8 9 11 12 13 13 12 12 12 13 12 10 9 9 9 7 5 4 3 3 2 2 2 2 1 1 0 0 0 0 0 0 0 0 0
3 4 5 5 5 6 6 7 9 10 11 11 11 11 10 10 10 11 11 11 11 10 10 8 6 4 3 2 2 2 1 1 1 1 0 0 0 0 0 0 0 0 0
4 4 5 6 7 7 8 9 10 11 12 12 10 9 8 7 8 8 8 9 10 10 9 7 4 3 2 2 1 1 1 2 2 1 0 0 0 0 0 0 0 0 0
4 5 5 6 8 9 9 10 10 11 11 11 9 8 6 5 5 4 5 6 7 7 6 4 3 2 1 1 1 1 1 2 2 1 1 1 1 1 0 0 0 0 0
6 6 6 7 9 10 9 9 11 12 10 9 8 7 5 4 2 2 2 2 3 3 2 2 2 1 1 1 1 1 1 2 2 1 1 1 1 1 1 0 0 0 0
6 6 6 8 11 13 10 7 9 13 12 9 6 5 4 2 2 1 1 1 1 1 1 1 1 1 1 1 1 1 1 1 1 1 1 0 1 1 1 0 0 0 0
6 5 5 6 9 12 9 5 6 12 13 9 6 5 3 2 2 1 1 1 2 1 1 0 1 1 1 1 1 1 1 1 1 1 1 0 0 1 0 0 0 0 0
5 4 4 5 6 7 5 2 4 9 12 9 6 4 3 2 1 1 1 2 2 2 1 0 0 0 0 0 0 1 1 1 1 1 1 1 1 0 0 0 0 0 0
4 4 5 5 5 3 1 0 2 7 9 8 5 4 3 2 1 1 1 2 2 1 1 1 0 0 0 0 0 0 1 1 1 1 1 1 1 0 0 0 0 0 0

GEFSMA_con_maxscp_216.txt.gz
SCP
1 1 1 1 1 1 1 1 1 1 1 1 1 1 1 1 1 1 1 1 1 1 1 1 1 1 1 1 1 1 1 1 1 1 1 1 0 0 0 0 0 0 1
1 1 1 1 1 1 1 1 1 2 2 2 1 1 1 1 1 1 1 1 1 1 1 1 1 1 1 1 1 1 1 1 1 1 1 1 1 1 1 0 1 1 1
1 1 1 1 1 1 1 2 2 2 2 2 2 2 2 2 1 1 1 1 1 1 1 1 1 1 1 1 1 1 1 1 1 1 1 1 1 1 1 1 1 1 1
2 2 2 2 2 2 2 2 2 2 2 2 2 2 2 2 1 1 1 1 1 1 1 1 1 1 1 1 1 1 1 1 1 1 1 1 1 1 1 1 1 1 1
2 2 2 2 2 2 3 2 2 2 2 2 2 2 2 2 1 1 1 1 1 1 1 1 1 1 1 1 1 1 1 1 1 1 1 1 1 1 1 1 1 1 1
2 2 2 2 2 2 2 2 2 2 3 3 2 2 2 2 2 1 1 1 1 1 1 1 1 1 1 2 1 1 2 2 1 1 1 1 1 1 1 1 1 1 1
2 2 2 2 2 2 2 2 2 3 3 3 2 2 2 2 2 2 1 1 1 1 1 1 1 2 2 2 1 1 2 2 2 1 1 1 1 1 1 1 1 1 1
2 2 2 2 2 2 2 2 3 3 2 2 2 2 2 2 2 2 2 2 1 1 1 1 2 2 3 2 2 2 2 2 2 2 1 1 1 1 1 1 1 1 1
3 2 2 3 3 3 3 3 3 3 2 2 2 2 2 2 2 2 2 2 2 2 1 1 2 2 3 3 3 3 3 3 2 2 1 1 1 1 1 1 1 1 1
3 3 3 3 4 4 3 3 3 3 3 3 3 2 3 4 4 3 3 2 2 2 2 1 1 2 3 4 4 4 3 3 3 2 2 1 1 1 1 1 1 1 1
3 3 3 3 4 4 4 4 4 4 4 4 3 3 3 5 6 6 5 4 3 3 2 2 1 2 3 4 5 5 4 3 3 2 2 1 1 1 1 1 1 1 1
3 3 3 3 4 4 4 4 4 4 4 5 5 4 4 5 6 6 6 5 4 4 3 2 2 2 3 4 5 5 4 2 2 2 2 1 1 1 1 1 1 1 1
3 4 4 4 4 4 4 4 4 4 4 5 5 6 6 6 6 6 6 6 5 4 3 3 3 3 3 3 4 4 3 2 1 1 1 1 1 1 1 1 1 1 1
4 4 5 4 4 4 4 4 4 4 4 5 6 7 7 7 7 7 6 6 5 4 3 3 3 3 3 3 3 2 2 1 1 1 1 1 1 0 0 0 0 0 0
5 6 6 5 4 4 5 5 5 5 5 6 6 7 7 8 8 7 6 5 6 5 4 3 3 3 3 3 2 1 1 1 0 0 0 0 0 0 0 0 0 0 0
6 6 6 5 4 5 6 7 7 6 6 7 7 7 7 7 6 5 5 5 5 5 4 3 3 3 3 3 2 1 1 1 0 0 0 0 0 0 0 0 0 0 0
7 7 6 5 4 5 7 8 8 8 8 8 7 7 6 6 5 4 4 4 5 4 4 3 3 3 3 3 3 2 2 2 1 0 0 0 0 0 0 0 0 0 0
8 8 6 5 5 5 6 7 8 8 8 8 8 8 7 6 5 4 4 4 4 4 4 4 3 4 4 4 4 3 2 2 2 1 0 0 0 0 0 0 0 0 0
9 8 7 6 6 6 6 7 7 7 7 8 8 8 8 7 6 5 4 4 4 4 4 3 3 4 4 4 4 3 2 1 1 1 0 0 0 0 0 0 0 0 0
10 9 8 7 7 8 8 7 6 5 5 5 6 7 8 8 7 6 5 4 4 3 3 3 3 3 3 3 3 2 1 1 1 0 0 0 0 0 0 0 0 0 0
11 10 9 9 10 10 9 7 5 4 3 3 3 4 5 6 7 6 5 4 4 3 2 2 2 2 2 2 2 1 1 1 1 1 0 0 0 0 0 0 0 0 0
13 12 11 11 11 9 7 5 4 4 3 2 2 2 2 4 5 5 4 4 3 3 2 2 2 2 2 2 1 1 1 1 1 1 1 0 0 0 1 0 0 0 0
14 14 13 12 9 7 5 4 3 3 3 2 2 2 2 2 3 4 4 3 3 2 2 1 1 1 1 1 1 1 1 1 1 1 1 0 0 0 0 0 0 0 0
14 14 13 11 8 5 4 3 2 3 3 3 2 2 1 1 2 3 4 4 3 2 1 1 1 1 1 1 1 1 1 1 1 1 1 0 0 0 0 0 0 0 0
15 14 12 10 7 6 4 2 1 2 2 3 2 2 2 1 1 1 2 3 2 2 1 1 1 1 0 0 1 1 1 1 1 1 1 1 0 1 1 0 0 0 0
14 14 12 10 8 6 4 2 1 1 2 3 3 2 2 1 1 1 1 2 2 2 1 1 1 0 0 0 0 1 1 1 1 1 1 1 1 1 1 0 0 0 0

GEFSMA_con_maxscp_222.txt.gz
SCP
1 0 0 0 0 0 0 0 0 1 1 1 1 2 2 2 1 1 0 1 1 1 1 1 1 1 1 1 1 1 1 1 1 1 1 1 1 1 1 0 0 0 0
1 1 0 0 0 0 0 0 1 1 1 1 1 2 2 2 2 1 0 0 1 1 1 1 1 1 1 1 1 1 1 1 1 1 1 1 1 1 1 0 0 0 0
1 1 1 1 1 1 1 1 1 1 1 1 1 2 2 2 2 1 1 0 1 1 1 1 1 1 1 1 1 1 1 1 1 1 1 1 1 1 1 1 0 0 0
1 1 1 1 0 0 1 1 1 1 1 1 1 2 2 2 1 1 1 0 0 1 1 1 1 1 1 1 1 1 1 1 1 1 1 1 1 1 1 1 1 1 1
1 1 1 1 0 0 0 1 1 1 1 1 1 1 1 1 1 1 1 0 0 0 0 1 1 1 1 1 1 1 1 1 1 1 1 1 1 1 1 1 1 1 1
1 1 1 1 0 0 1 1 1 1 1 1 1 1 1 1 1 1 1 0 0 0 0 0 1 1 1 1 1 1 1 1 1 1 1 1 1 1 1 1 1 1 1
1 1 1 1 1 1 1 1 1 1 1 1 1 1 1 1 1 1 0 0 0 0 0 0 0 1 1 1 2 2 2 2 2 2 2 2 1 1 1 1 1 1 1
2 2 2 1 1 1 1 1 1 1 1 1 1 1 1 1 1 1 1 1 1 1 1 0 0 0 1 1 1 2 3 3 3 2 2 2 2 1 1 1 1 1 1
2 2 2 2 2 2 1 1 2 2 2 2 2 2 2 2 1 1 1 1 1 1 1 1 0 0 0 0 1 1 2 3 3 2 2 2 2 1 1 1 1 1 1
2 2 2 2 2 2 2 2 2 2 3 3 3 3 3 3 3 3 2 2 1 1 1 1 0 0 0 0 1 1 1 2 2 1 2 2 2 1 1 1 1 1 1
2 2 2 2 1 2 2 2 2 3 3 3 3 3 4 4 4 4 3 2 2 1 1 1 0 0 0 1 1 1 1 1 1 1 1 2 2 2 1 1 1 1 1
2 2 2 1 1 1 1 1 2 2 3 3 4 3 4 4 5 5 4 3 2 1 1 0 0 0 1 1 1 2 1 1 1 1 1 2 2 2 1 1 1 1 1
2 2 2 2 2 1 1 1 1 2 2 3 3 3 3 3 4 4 4 3 2 1 1 0 0 1 1 1 1 2 2 1 1 1 1 1 2 1 1 1 1 1 1
2 2 2 2 2 1 1 1 1 2 2 2 2 2 2 2 3 3 3 3 2 1 1 0 0 0 1 1 1 1 2 2 1 1 0 1 1 1 1 1 1 1 1
2 2 3 2 2 1 1 2 2 2 2 2 2 2 2 2 2 2 2 2 2 1 1 0 0 0 0 0 1 1 1 2 1 1 0 0 0 0 1 1 1 1 1
2 2 3 2 2 1 1 2 2 2 2 2 2 2 3 3 3 3 3 3 2 2 1 1 0 0 0 0 0 1 1 1 1 1 0 0 0 0 0 0 0 0 0
2 2 3 2 2 1 1 2 2 2 2 3 3 3 3 3 4 4 4 3 3 2 2 1 1 0 0 0 0 0 0 1 1 1 0 0 0 0 0 0 0 0 0
2 3 3 2 2 2 2 2 2 2 3 3 3 3 3 3 4 4 4 3 3 3 2 1 1 0 0 0 0 0 0 1 1 1 0 0 0 0 0 0 0 0 0
3 3 3 2 2 2 2 2 2 3 3 2 2 3 3 3 3 3 3 3 3 3 3 2 2 1 0 0 0 0 0 0 1 1 0 0 0 0 0 0 0 0 0
4 3 3 2 2 2 3 3 3 3 2 2 1 1 1 2 2 2 2 2 2 2 2 2 2 1 1 0 0 0 0 0 0 0 0 0 0 0 0 0 0 0 0
4 4 3 3 3 3 3 4 4 3 1 1 1 1 1 1 1 1 1 1 1 1 2 2 2 2 1 1 1 0 0 0 0 0 0 0 0 0 0 0 0 0 0
6 5 4 3 4 4 4 4 4 2 2 1 1 1 1 1 1 1 1 0 0 0 1 1 1 2 2 1 1 1 0 0 0 0 0 0 0 0 0 0 0 0 0
8 7 6 4 4 4 4 3 3 2 2 2 1 1 1 0 0 0 0 0 0 0 0 0 1 1 1 1 1 1 0 0 0 0 0 0 0 0 0 0 0 0 0
9 8 7 6 6 5 3 2 2 2 2 2 1 1 1 1 1 0 0 0 0 0 0 0 0 0 1 1 1 1 1 0 0 0 0 0 0 0 0 0 0 0 0
11 10 9 8 7 5 2 1 1 1 1 1 1 1 1 1 1 1 1 1 0 0 0 0 0 0 0 0 1 1 0 0 0 0 0 0 0 0 0 0 0 0 0
12 12 12 10 8 5 2 0 1 1 1 1 1 1 1 1 1 1 1 1 1 1 1 1 0 0 0 0 0 0 0 0 0 0 0 0 0 0 0 0 0 0 0

GEFSMA_con_maxscp_228.txt.gz
SCP
0 0 0 0 0 0 0 1 1 1 1 1 1 2 2 2 3 2 1 1 1 1 1 1 1 2 1 1 1 1 1 1 1 1 0 0 0 0 0 0 0 0 0
0 0 0 0 0 0 0 0 1 1 1 1 1 2 2 2 2 2 1 1 1 1 1 1 1 2 2 2 2 1 1 1 1 1 1 0 0 0 0 0 0 0 0
0 0 0 0 0 0 0 0 1 1 1 1 1 1 2 2 2 2 1 1 1 1 1 1 1 1 2 2 2 2 2 2 1 1 1 1 1 1 0 0 0 0 0
0 0 0 0 0 0 0 1 1 1 1 1 1 1 1 1 1 1 1 1 0 0 1 1 1 1 1 2 2 2 2 2 2 2 1 1 1 1 1 1 0 0 0
0 0 0 0 0 0 0 1 1 1 1 1 1 1 1 1 1 1 1 0 0 0 0 0 0 1 1 1 1 2 2 2 2 2 2 2 1 1 1 1 1 0 0
0 0 0 0 0 0 0 1 1 1 1 1 1 1 1 1 1 0 0 1 1 0 0 0 0 0 0 1 1 1 2 2 2 2 2 2 2 2 1 1 1 1 1
0 0 0 0 0 0 0 0 0 0 1 1 1 1 1 1 0 0 0 1 1 1 1 0 0 0 0 0 1 1 1 1 1 2 2 2 2 2 1 1 1 1 1
1 0 0 0 0 0 0 0 0 0 1 1 1 1 1 1 1 1 1 1 1 1 1 1 0 0 0 0 0 1 1 1 1 1 1 2 1 1 1 1 1 1 1
1 1 1 1 1 1 1 1 1 1 1 1 2 2 2 2 2 1 1 1 1 1 1 1 1 1 0 0 0 0 0 1 1 1 1 1 1 1 1 1 1 1 1
1 1 1 1 1 1 1 1 1 1 1 2 2 2 3 3 3 2 2 1 1 1 1 1 1 1 0 0 0 0 0 0 0 1 1 1 1 1 1 1 1 1 1
0 1 1 1 1 1 1 1 1 1 1 2 2 2 2 3 3 2 1 1 1 1 1 1 1 1 1 0 0 0 0 0 0 0 1 1 1 1 2 2 2 2 2
1 1 1 1 1 1 1 1 1 1 1 1 1 1 1 2 2 1 1 1 1 1 1 1 1 1 1 1 1 1 1 0 0 0 0 0 1 1 2 2 2 2 2
1 1 1 1 1 1 1 1 1 1 1 1 1 1 1 2 2 1 1 1 1 1 1 1 1 1 1 1 1 1 1 1 0 0 0 0 1 1 1 1 2 2 2
1 1 1 1 1 1 1 1 1 1 1 1 2 2 2 2 2 2 2 2 1 1 1 1 1 1 1 1 1 1 1 1 0 0 0 0 0 0 1 1 1 2 1
1 1 1 1 1 1 1 1 1 1 1 2 2 2 2 2 2 3 3 3 2 2 1 1 2 1 1 1 1 1 1 1 0 0 0 0 0 0 0 0 1 1 1
1 1 1 1 1 1 1 1 1 1 2 2 2 2 2 2 3 3 3 3 3 3 2 2 2 2 1 1 1 1 1 0 0 0 0 0 0 0 0 0 0 0 0
1 1 1 1 1 1 1 1 1 1 2 2 2 2 2 2 3 3 3 3 4 4 3 2 2 2 2 1 1 1 1 0 0 0 0 0 0 0 0 0 0 0 0
1 1 1 1 1 1 2 1 1 1 2 2 2 3 3 3 2 3 3 3 3 4 3 2 2 2 2 1 1 1 1 1 0 0 0 0 0 0 0 0 0 0 0
2 2 2 2 2 2 3 2 2 2 2 2 3 3 4 3 2 2 2 2 2 2 2 2 1 2 2 1 1 1 1 1 0 0 0 0 0 0 0 0 0 0 0
2 2 2 3 3 3 3 3 3 3 3 3 4 4 4 4 2 1 1 1 1 1 1 1 1 1 1 1 1 1 1 1 1 0 0 0 0 0 0 0 0 0 0
3 3 3 3 3 3 3 3 3 3 3 4 4 5 5 3 2 1 0 0 0 0 0 0 0 1 1 1 1 1 1 1 1 1 0 0 0 0 0 0 0 0 0
5 5 5 5 5 5 5 4 4 4 4 5 5 6 5 3 1 0 0 0 0 0 0 0 0 0 0 1 1 1 1 1 1 1 1 0 0 0 0 0 0 0 0
6 6 7 7 7 7 7 5 4 4 5 6 6 6 4 2 1 1 0 0 0 0 0 0 0 0 0 0 1 1 1 1 1 1 1 1 0 0 0 0 0 0 0
6 7 8 9 10 10 9 7 5 6 7 7 6 5 3 1 1 0 0 0 0 0 1 0 0 0 0 0 1 1 1 0 1 1 1 1 1 0 0 0 0 0 0
4 5 7 9 10 11 10 8 7 8 9 8 7 4 2 1 0 0 0 0 0 1 1 1 1 1 0 0 1 1 1 0 0 1 1 1 1 1 0 0 0 0 0
3 4 6 8 9 10 11 9 8 10 11 9 7 4 1 0 0 0 0 0 0 0 1 1 1 1 1 0 1 1 1 1 1 1 1 1 1 1 1 0 0 0 0

GEFSMA_con_maxscp_234.txt.gz
SCP
2 2 2 1 1 2 2 2 2 2 2 2 2 2 2 2 1 2 2 2 1 1 1 1 1 1 1 1 0 0 1 1 1 1 1 1 1 1 1 0 0 0 0
2 2 2 2 2 1 1 1 1 2 2 2 2 1 1 1 1 1 1 1 1 1 1 1 1 1 1 0 0 0 1 1 1 1 1 1 1 1 1 1 0 0 0
2 2 2 2 1 1 1 1 1 1 1 1 1 1 1 1 1 1 1 1 1 1 1 1 1 1 1 0 0 0 1 1 2 1 1 1 1 1 1 1 1 0 0
1 1 1 1 1 1 0 0 1 1 1 1 1 1 1 0 1 1 1 1 1 1 1 1 1 1 1 0 0 0 1 1 1 1 1 1 1 1 1 1 1 1 1
1 1 1 1 0 0 0 0 1 1 1 1 1 1 1 1 1 1 1 1 1 1 1 1 1 1 1 1 1 1 1 1 1 1 1 1 1 1 1 1 1 1 1
1 1 0 0 0 0 0 0 0 0 0 1 1 1 1 1 1 2 2 2 2 1 1 1 1 2 1 1 1 1 1 1 1 1 1 1 1 1 1 1 1 1 1
0 0 1 0 0 0 0 1 0 0 0 0 1 0 1 1 2 2 2 2 1 1 1 1 1 2 2 1 1 1 1 1 1 1 1 1 1 1 1 1 1 1 1
0 0 1 1 1 1 1 1 1 0 0 0 0 0 0 1 1 2 2 2 1 1 1 1 1 1 1 1 1 1 1 1 1 1 1 1 1 1 1 1 1 1 1
1 1 1 1 1 1 1 1 1 1 1 1 1 1 1 1 1 1 2 1 1 1 1 1 1 1 1 1 1 1 1 1 1 1 1 1 1 1 1 1 1 1 1
1 1 1 1 1 1 1 1 1 1 1 1 1 1 1 1 1 1 1 1 1 1 1 1 1 1 1 1 1 1 1 1 1 1 1 1 1 1 1 1 1 2 1
1 1 1 1 1 1 1 2 1 1 1 1 1 1 1 1 1 1 1 1 1 1 1 1 1 1 1 1 1 1 1 1 1 1 1 1 1 1 1 1 1 2 2
1 1 1 1 1 1 2 2 2 2 1 1 1 1 1 2 2 2 2 2 2 2 2 2 2 2 1 1 1 1 1 1 1 1 1 1 1 1 1 1 1 1 2
1 1 1 1 1 1 2 2 2 1 1 1 2 2 2 2 2 3 3 2 2 3 4 4 3 3 3 2 1 1 1 1 1 1 1 1 1 1 1 1 1 1 1
1 1 1 1 1 1 1 2 2 1 1 1 2 2 2 2 3 3 3 3 3 3 4 5 4 4 3 3 1 1 1 1 1 1 1 1 1 1 1 1 1 1 1
1 1 1 1 1 1 2 2 2 1 1 2 2 2 2 2 2 3 3 4 4 3 4 4 4 3 3 3 2 1 1 1 1 1 1 0 0 0 0 0 0 1 1
2 2 2 2 2 2 2 2 2 2 3 3 3 3 3 3 3 3 3 4 4 4 4 3 3 2 2 2 2 2 2 2 1 1 0 0 0 0 0 0 0 0 0
3 3 2 2 2 3 3 3 3 3 3 4 4 4 5 5 5 5 5 5 5 6 5 4 3 2 3 3 3 3 3 3 2 1 1 0 0 0 0 0 0 0 0
4 3 2 2 3 3 3 4 4 4 4 4 4 5 5 5 6 6 6 7 8 8 8 5 3 3 3 3 3 3 3 3 2 1 1 0 0 0 0 0 0 0 0
5 4 3 3 3 3 3 3 4 5 5 5 5 4 4 5 6 6 7 9 10 11 11 8 4 2 3 3 3 2 2 2 2 2 1 1 0 0 0 0 0 0 0
6 5 4 3 3 3 3 3 4 4 5 5 5 5 4 4 4 5 7 9 12 13 13 9 4 2 2 2 2 2 2 2 2 2 1 1 1 0 0 0 0 0 0
7 6 5 4 3 3 3 3 3 4 4 5 5 5 4 4 4 4 5 8 11 13 14 10 4 1 1 2 1 1 1 1 1 1 1 1 1 1 1 1 0 0 0
7 7 6 4 3 3 3 3 3 3 4 4 5 5 4 4 4 4 4 5 8 11 12 10 5 2 2 1 1 1 1 1 1 1 1 1 2 2 2 1 1 0 0
7 7 6 5 4 4 3 2 2 3 3 4 4 4 4 4 5 5 5 4 6 7 9 8 5 3 2 2 1 1 1 1 1 1 1 1 2 2 2 2 1 0 0
6 6 6 5 5 5 4 2 2 3 3 4 4 4 4 5 5 5 6 6 6 5 4 4 3 2 2 2 1 1 1 1 1 1 1 1 1 1 2 2 1 0 0
6 6 6 6 6 6 4 2 2 3 4 5 5 5 5 5 5 4 5 6 6 4 2 1 1 1 1 1 1 1 1 1 1 1 1 1 1 1 1 1 1 1 0
6 7 7 7 7 6 3 1 2 4 5 6 6 6 6 6 4 3 4 5 5 3 2 1 1 1 0 0 0 1 1 1 1 1 1 1 1 1 1 1 1 1 1

GEFSMA_con_maxscp_240.txt.gz
SCP
1 1 1 1 1 1 1 1 2 2 2 1 1 1 1 1 1 1 1 1 1 1 1 1 1 1 1 1 1 1 1 1 1 1 1 1 1 1 1 0 0 0 0
1 1 1 1 1 1 1 2 2 1 1 1 1 1 1 1 1 1 1 1 1 1 1 1 1 1 1 1 1 1 1 1 1 1 1 1 1 1 1 1 1 0 0
1 1 1 1 1 1 1 1 1 1 1 1 1 1 1 1 1 1 1 1 1 1 1 1 1 1 1 1 1 1 1 1 1 1 1 1 1 1 1 1 1 1 1
1 1 1 1 1 1 1 1 1 1 1 1 1 1 1 1 1 1 1 1 1 2 2 2 2 2 2 2 2 1 1 1 1 1 1 1 1 1 1 1 1 1 1
1 1 1 1 0 0 0 1 1 1 1 0 0 1 2 2 2 2 1 1 1 2 2 2 2 2 2 2 1 1 1 1 1 1 1 1 1 1 1 1 1 1 1
1 1 1 1 0 0 1 1 1 1 1 0 0 1 1 2 2 2 1 1 1 1 1 2 2 2 2 1 1 1 1 1 1 1 1 1 1 1 1 1 1 1 1
1 1 1 1 1 1 1 1 1 1 1 1 1 1 1 2 2 2 2 1 1 1 1 1 2 2 2 1 1 1 1 1 1 1 1 1 1 1 1 1 1 1 1
1 1 1 1 1 1 1 1 1 1 1 1 1 1 1 1 1 2 1 1 1 1 1 1 2 2 2 2 1 2 2 2 2 2 2 1 1 1 1 1 1 1 1
1 1 1 1 1 1 1 1 1 1 1 1 1 1 1 1 1 1 1 1 1 1 1 1 1 2 2 2 2 2 2 2 2 2 2 2 2 1 1 1 1 1 1
2 2 1 1 1 1 1 1 1 2 2 2 1 1 1 1 1 1 1 1 2 2 2 2 2 2 2 2 2 2 2 2 2 2 2 2 2 2 2 1 1 1 1
2 2 2 2 2 2 2 2 2 2 2 2 2 2 1 1 1 1 1 2 2 2 2 2 2 2 2 2 2 3 3 3 3 2 2 2 2 2 2 2 1 1 1
3 3 4 4 3 3 3 3 2 3 3 2 2 2 2 2 1 2 2 2 2 2 2 2 2 2 3 3 3 3 3 2 2 2 2 2 2 2 2 2 2 1 1
3 4 4 4 4 3 3 3 3 3 3 3 2 2 2 2 2 2 2 2 2 2 2 2 2 2 3 3 3 3 2 2 2 2 2 2 2 2 2 2 2 2 2
3 3 4 4 4 4 4 4 3 3 3 3 3 2 2 2 2 2 2 2 2 2 2 3 3 3 3 3 3 2 2 2 1 1 1 1 1 1 1 1 1 2 2
2 3 4 5 5 5 5 4 4 4 3 3 3 3 3 3 2 3 3 3 3 2 3 4 4 4 3 3 2 2 2 2 1 1 1 0 0 0 0 1 1 1 1
3 3 5 6 7 7 7 6 5 5 5 5 4 4 4 4 4 4 4 4 4 3 3 4 5 5 4 3 2 2 2 2 1 1 0 0 0 0 0 0 0 1 1
4 4 5 6 7 8 9 8 6 5 5 6 5 5 5 5 5 5 5 5 5 4 4 5 6 6 5 3 2 2 2 2 2 1 1 0 0 0 0 0 0 0 0
6 6 6 6 7 8 8 8 6 5 6 6 6 6 6 6 6 6 6 5 5 5 5 6 7 7 6 4 2 2 2 2 2 2 1 1 1 1 0 0 0 0 0
8 8 8 8 7 7 7 6 5 5 6 6 6 6 5 6 6 7 6 6 5 5 5 6 7 8 6 4 3 2 2 1 1 1 1 1 1 1 0 0 0 0 0
9 10 10 10 9 7 6 5 4 5 6 6 5 5 5 5 5 6 6 6 6 6 5 5 6 7 5 3 2 2 2 1 1 1 1 1 1 1 1 0 0 0 0
10 10 11 11 10 8 6 4 3 4 5 5 4 4 4 4 4 4 5 5 6 6 5 5 5 5 4 3 2 2 2 1 1 1 1 1 1 1 1 1 0 0 0
12 12 12 12 11 9 6 4 3 4 4 4 4 4 4 3 3 4 4 4 4 4 4 5 5 5 4 3 3 2 2 1 1 1 1 1 1 1 1 1 1 0 0
14 13 12 12 10 8 5 4 4 4 4 4 4 4 4 4 4 4 4 4 4 3 3 4 4 5 4 4 3 2 2 1 1 1 1 1 1 1 1 1 1 1 0
14 13 11 10 9 7 4 3 4 5 6 5 5 5 5 5 5 5 5 6 5 4 3 3 3 4 4 3 3 2 2 1 1 1 1 1 1 2 2 2 1 1 0
14 12 9 8 8 6 4 3 4 6 6 7 7 6 5 5 5 5 6 7 7 6 5 4 3 3 3 2 2 2 2 1 1 1 1 1 1 2 2 2 2 1 1
13 11 9 8 8 7 5 4 4 5 7 7 7 6 5 5 6 5 6 7 7 7 6 5 4 3 2 1 1 2 2 1 1 1 1 1 1 2 2 2 2 1 1

GEFSMA_con_maxscp_246.txt.gz
SCP
1 1 1 1 1 1 1 0 0 0 0 0 0 0 1 1 1 0 1 1 1 1 1 1 1 1 1 1 1 1 1 1 1 1 1 0 1 1 0 0 0 0 0
1 1 1 1 1 1 0 0 0 0 0 0 0 0 1 1 1 1 1 1 1 1 1 1 1 1 1 1 1 1 1 1 1 1 1 1 1 1 0 0 1 0 0
1 1 1 1 0 0 0 0 0 0 0 0 0 1 1 1 1 1 1 1 1 1 1 1 1 1 1 1 1 1 1 1 1 1 1 1 1 1 1 1 1 1 1
0 0 0 0 0 0 0 0 0 0 0 0 0 1 1 1 1 1 2 1 1 1 1 1 1 1 1 1 1 1 1 1 1 1 1 1 1 1 1 1 1 1 1
0 0 0 0 0 0 0 0 0 0 0 0 0 1 1 1 1 1 1 1 1 1 1 1 1 1 1 1 1 1 1 1 1 1 1 1 1 1 1 1 1 1 1
0 0 0 0 0 0 0 0 0 0 0 0 0 1 1 1 0 0 0 0 0 1 1 1 1 1 1 2 2 1 1 1 1 1 1 1 1 1 1 1 0 0 1
0 0 0 0 0 0 0 0 0 0 0 0 0 1 1 0 0 0 0 0 0 1 1 1 1 1 1 1 2 2 2 1 1 1 1 1 1 1 1 1 0 0 0
0 0 0 0 0 0 0 0 0 0 0 0 0 0 0 0 0 0 0 0 0 0 1 1 1 1 1 1 1 2 2 2 1 1 1 1 1 1 1 1 1 0 0
0 0 0 0 0 0 0 0 0 0 0 0 0 0 0 0 0 0 0 0 0 0 0 0 0 1 1 1 1 1 1 2 1 1 1 1 1 1 1 1 1 1 0
1 1 1 1 1 1 1 1 1 1 1 1 1 1 1 0 0 0 0 0 0 0 0 0 1 1 1 1 1 1 1 1 1 1 1 1 1 1 1 1 1 1 1
1 1 1 1 1 1 1 1 1 1 1 1 1 1 1 0 0 0 0 0 0 0 0 0 1 1 1 1 1 1 1 1 1 1 1 1 1 1 1 1 1 1 1
1 1 1 2 1 1 1 1 1 1 1 1 1 1 1 1 1 1 1 0 0 0 0 0 1 1 1 1 1 1 1 1 0 0 1 1 1 1 1 1 1 1 1
1 1 2 2 2 1 1 1 1 1 1 1 1 1 1 1 1 1 1 1 1 0 0 1 1 1 1 1 1 1 1 1 1 1 1 1 1 1 1 1 1 1 1
1 1 1 2 2 2 1 1 1 1 1 2 1 1 2 2 2 2 2 2 1 1 1 1 1 1 1 1 1 1 1 1 0 0 0 1 1 1 1 1 1 1 1
1 1 2 2 2 2 2 2 2 2 2 2 2 2 2 2 2 3 3 2 2 2 1 1 1 1 1 1 1 1 1 1 0 0 0 0 0 1 0 0 0 0 0
1 2 2 2 2 2 2 2 2 3 2 2 2 2 2 2 3 3 3 3 3 3 2 1 1 1 1 1 2 2 1 1 0 0 0 0 0 0 0 0 0 0 0
2 2 2 2 2 1 1 2 3 3 3 3 2 2 2 2 3 3 3 3 3 3 2 1 1 1 1 2 2 2 1 1 0 0 0 0 0 0 0 0 0 0 0
3 3 3 2 2 1 2 2 3 4 4 3 2 2 2 2 2 3 3 3 3 3 2 2 1 2 2 3 3 2 2 1 0 0 0 0 0 0 0 0 0 0 0
4 4 3 3 3 2 2 2 3 3 4 3 3 2 2 2 2 2 3 3 3 3 3 3 2 2 3 4 4 3 2 1 0 0 0 0 0 0 0 0 0 0 0
4 4 4 4 4 4 3 3 2 2 3 3 3 3 3 2 2 3 3 3 4 4 4 4 4 3 4 5 5 4 3 1 0 0 0 0 0 0 0 0 0 0 0
4 4 4 5 5 5 4 3 3 2 3 3 3 3 3 3 3 3 4 4 5 5 6 6 6 6 6 6 6 5 4 2 1 0 0 0 0 0 0 0 0 0 0
5 5 5 5 5 5 4 3 3 3 3 3 3 3 3 3 3 3 3 3 4 5 5 6 6 6 6 6 6 6 5 3 2 1 0 0 0 0 0 0 0 0 0
7 7 7 6 5 4 3 3 3 3 3 3 3 3 3 3 2 2 2 2 2 3 3 4 4 5 5 5 5 5 5 4 3 1 0 0 0 0 0 0 0 0 0
8 8 8 8 7 5 3 2 2 3 3 3 3 3 4 4 3 2 2 2 2 2 2 2 2 3 3 3 4 4 4 4 2 1 0 0 0 0 0 0 0 0 0
9 9 9 10 9 6 3 1 1 2 3 3 3 3 4 4 3 3 3 3 3 2 2 2 1 1 1 1 2 3 4 3 2 1 0 0 0 0 0 0 0 0 0
10 10 10 11 11 7 3 1 1 2 3 3 3 3 4 4 3 3 3 3 3 3 3 2 1 1 1 1 1 2 3 4 2 0 0 0 0 0 0 0 0 0 0

GEFSMA_con_maxscp_252.txt.gz
SCP
0 1 1 1 0 0 0 0 0 0 0 0 0 0 0 1 1 1 1 1 1 1 1 1 1 1 1 1 1 1 1 0 0 0 0 0 0 0 0 0 0 0 0
1 1 1 0 0 0 0 0 0 0 0 0 0 0 1 1 1 1 1 1 1 1 1 1 1 1 1 1 1 1 1 1 1 1 0 0 0 0 0 0 0 0 0
1 1 0 0 0 0 0 0 0 0 0 0 0 0 1 1 1 1 1 1 1 1 1 1 1 1 1 1 1 1 1 1 1 1 1 1 1 0 0 0 0 0 0
0 0 0 0 0 0 0 0 0 0 0 0 0 0 1 1 1 1 1 0 0 0 0 1 1 1 1 1 1 1 1 1 1 1 1 1 1 1 1 1 1 1 0
0 0 0 0 0 0 0 0 0 0 0 0 0 0 0 1 0 0 0 0 0 0 0 0 1 1 1 1 1 1 1 1 1 1 1 1 1 1 1 1 1 1 0
0 0 0 0 0 0 0 0 0 0 0 0 0 0 0 0 0 0 0 0 0 0 0 0 0 1 1 1 1 1 1 1 1 1 1 1 1 1 1 1 1 1 0
0 0 0 0 0 0 0 0 0 0 0 0 0 0 0 0 0 0 0 0 0 0 0 0 0 0 0 1 1 1 1 1 1 1 1 1 1 1 1 1 1 0 0
0 0 0 0 0 0 0 0 0 0 0 0 0 0 0 0 0 0 0 0 0 0 0 0 0 0 0 0 0 0 1 1 1 1 1 1 1 1 1 1 1 0 0
0 0 0 0 0 0 0 0 0 0 0 0 0 0 0 0 0 0 0 0 0 0 0 0 0 0 0 0 0 0 0 0 0 0 1 1 1 1 1 1 1 1 1
0 0 0 0 0 0 0 0 1 1 0 0 0 0 0 0 0 0 0 0 0 0 0 0 0 0 0 0 0 0 0 0 0 0 1 1 1 1 1 1 1 0 1
0 0 0 0 0 0 0 1 1 1 1 0 0 1 1 1 0 0 0 0 0 0 0 0 0 0 0 1 1 1 1 0 0 0 0 0 1 1 1 1 1 0 0
0 0 1 1 0 1 1 1 1 1 1 1 1 1 1 1 1 1 1 0 0 0 0 1 1 1 1 1 1 1 1 0 0 0 0 0 0 0 1 1 1 1 1
0 0 1 1 1 1 1 1 1 1 1 1 1 1 1 1 1 1 1 1 1 1 1 1 1 1 1 1 1 1 1 1 0 0 0 0 0 1 1 1 1 1 1
0 0 1 1 1 1 1 1 1 1 2 2 2 2 2 2 2 2 2 2 1 1 1 1 1 1 1 1 1 1 1 1 0 0 0 0 0 1 1 1 1 1 0
0 1 1 1 1 1 1 1 1 1 2 2 2 2 2 2 3 3 3 3 2 2 2 1 1 1 1 1 1 1 1 0 0 0 0 0 1 1 1 1 1 0 0
1 1 1 1 1 1 1 1 1 1 1 2 2 2 2 2 3 3 3 3 3 3 3 2 2 1 1 1 1 1 1 1 1 1 1 1 1 1 1 1 0 0 0
1 1 1 1 1 1 1 1 1 1 1 2 2 2 2 2 3 3 4 3 4 4 3 3 3 2 2 2 1 1 1 1 1 1 1 1 1 1 1 0 0 0 0
2 2 2 2 1 1 1 1 1 1 1 2 2 2 2 2 3 3 3 3 3 3 3 3 3 3 2 2 2 2 2 2 2 1 1 1 1 1 0 0 0 0 0
2 2 2 2 2 2 2 2 2 2 2 2 2 2 2 2 3 3 3 3 3 3 3 3 3 3 3 3 3 3 3 3 3 2 2 1 1 1 0 0 0 0 0
2 2 2 2 3 3 3 3 2 2 2 3 3 2 2 3 3 3 4 4 4 4 4 4 4 4 5 5 5 5 4 4 4 4 3 3 2 1 0 0 0 0 0
2 2 2 3 3 3 3 3 3 3 3 4 4 3 3 3 3 3 3 4 4 4 5 5 6 6 6 7 7 7 6 6 5 5 5 4 3 1 0 0 0 0 0
2 3 3 3 4 3 3 3 3 4 4 4 4 4 3 3 3 3 2 2 3 3 4 5 5 6 6 6 7 7 7 6 6 6 5 4 3 1 1 0 0 0 0
3 3 4 4 5 4 3 2 2 3 3 3 3 3 3 3 2 2 2 1 1 1 2 3 3 4 4 5 5 5 5 5 5 5 4 4 3 1 1 0 0 0 0
4 4 5 5 5 4 3 2 2 2 2 3 3 3 3 3 2 2 2 1 1 1 1 2 2 3 3 3 3 2 2 3 4 4 4 3 2 1 1 0 0 0 0
5 5 5 5 5 5 4 3 2 2 3 3 3 3 3 2 2 1 2 2 2 2 2 2 2 2 2 2 2 2 1 2 3 4 3 3 2 1 1 0 0 0 0
5 5 5 5 6 6 5 3 2 3 4 4 4 3 2 2 2 1 1 2 2 2 2 2 1 1 1 1 1 1 1 1 2 3 3 2 1 1 1 0 0 0 0